TimeEST,TemperatureF,Dew PointF,Humidity,Sea Level PressureIn,VisibilityMPH,Wind Direction,Wind SpeedMPH,Gust SpeedMPH,PrecipitationIn,Events,Conditions,WindDirDegrees,DateUTC
12:15 AM,3.2,-4.0,72,30.04,10.0,Calm,Calm,-,N/A,,Clear,0,2014-01-24 05:15:00
12:35 AM,3.2,-2.2,78,30.04,10.0,NW,3.5,-,N/A,,Clear,310,2014-01-24 05:35:00
12:55 AM,3.2,-2.2,78,30.04,10.0,NW,3.5,-,N/A,,Clear,320,2014-01-24 05:55:00
1:15 AM,3.2,-2.2,78,30.05,10.0,Calm,Calm,-,N/A,,Clear,0,2014-01-24 06:15:00
1:35 AM,1.4,-4.0,78,30.05,10.0,NW,3.5,-,N/A,,Clear,320,2014-01-24 06:35:00
1:55 AM,1.4,-4.0,78,30.06,10.0,Calm,Calm,-,N/A,,Clear,0,2014-01-24 06:55:00
2:15 AM,1.4,-4.0,78,30.06,10.0,NW,3.5,-,N/A,,Clear,320,2014-01-24 07:15:00
2:35 AM,1.4,-5.8,72,30.07,10.0,Calm,Calm,-,N/A,,Clear,0,2014-01-24 07:35:00
2:55 AM,1.4,-5.8,72,30.07,10.0,NNW,3.5,-,N/A,,Clear,330,2014-01-24 07:55:00
3:15 AM,1.4,-4.0,78,30.07,10.0,NW,3.5,-,N/A,,Clear,320,2014-01-24 08:15:00
3:35 AM,3.2,-5.8,66,30.07,10.0,NW,3.5,-,N/A,,Clear,310,2014-01-24 08:35:00
3:55 AM,1.4,-5.8,72,30.07,10.0,NW,4.6,-,N/A,,Clear,310,2014-01-24 08:55:00
4:15 AM,1.4,-5.8,72,30.07,10.0,NW,3.5,-,N/A,,Partly Cloudy,310,2014-01-24 09:15:00
4:35 AM,1.4,-5.8,72,30.07,10.0,NW,5.8,-,N/A,,Partly Cloudy,310,2014-01-24 09:35:00
4:55 AM,1.4,-5.8,72,30.08,10.0,NW,4.6,-,N/A,,Clear,320,2014-01-24 09:55:00
5:15 AM,1.4,-5.8,72,30.09,10.0,WNW,3.5,-,N/A,,Clear,300,2014-01-24 10:15:00
5:35 AM,1.4,-5.8,72,30.09,10.0,WNW,3.5,-,N/A,,Clear,290,2014-01-24 10:35:00
5:55 AM,-0.4,-7.6,72,30.10,10.0,Calm,Calm,-,N/A,,Clear,0,2014-01-24 10:55:00
6:15 AM,-0.4,-7.6,72,30.10,10.0,Calm,Calm,-,N/A,,Clear,0,2014-01-24 11:15:00
6:35 AM,-2.2,-7.6,78,30.11,10.0,Calm,Calm,-,N/A,,Clear,0,2014-01-24 11:35:00
6:55 AM,-2.2,-9.4,71,30.11,10.0,Calm,Calm,-,N/A,,Clear,0,2014-01-24 11:55:00
7:15 AM,-4.0,-9.4,78,30.12,10.0,Calm,Calm,-,N/A,,Clear,0,2014-01-24 12:15:00
7:35 AM,-0.4,-5.8,78,30.12,10.0,Calm,Calm,-,N/A,,Clear,0,2014-01-24 12:35:00
7:55 AM,3.2,-4.0,72,30.13,10.0,Calm,Calm,-,N/A,,Clear,0,2014-01-24 12:55:00
8:15 AM,5.0,-2.2,72,30.14,10.0,Calm,Calm,-,N/A,,Clear,0,2014-01-24 13:15:00
8:35 AM,6.8,-2.2,67,30.14,10.0,WNW,4.6,-,N/A,,Clear,300,2014-01-24 13:35:00
8:55 AM,6.8,-4.0,61,30.14,10.0,NNW,4.6,-,N/A,,Clear,330,2014-01-24 13:55:00
9:15 AM,8.6,-5.8,52,30.15,10.0,NW,6.9,-,N/A,,Clear,310,2014-01-24 14:15:00
9:35 AM,8.6,-4.0,57,30.14,10.0,WNW,11.5,16.1,N/A,,Clear,290,2014-01-24 14:35:00
9:55 AM,8.6,-5.8,52,30.14,10.0,NW,6.9,-,N/A,,Clear,310,2014-01-24 14:55:00
10:15 AM,10.4,-5.8,48,30.14,10.0,NW,9.2,-,N/A,,Clear,320,2014-01-24 15:15:00
10:35 AM,10.4,-5.8,48,30.13,10.0,NNW,8.1,-,N/A,,Clear,330,2014-01-24 15:35:00
10:55 AM,10.4,-5.8,48,30.12,10.0,NW,9.2,-,N/A,,Clear,320,2014-01-24 15:55:00
11:15 AM,12.2,-5.8,45,30.11,10.0,WNW,8.1,-,N/A,,Clear,290,2014-01-24 16:15:00
11:35 AM,12.2,-5.8,45,30.10,10.0,NNW,8.1,-,N/A,,Clear,340,2014-01-24 16:35:00
11:55 AM,12.2,-5.8,45,30.09,10.0,NNW,5.8,-,N/A,,Clear,340,2014-01-24 16:55:00
12:15 PM,15.8,-4.0,41,30.09,10.0,WNW,6.9,-,N/A,,Clear,290,2014-01-24 17:15:00
12:35 PM,15.8,-5.8,38,30.08,10.0,NNW,8.1,-,N/A,,Clear,330,2014-01-24 17:35:00
12:55 PM,15.8,-4.0,41,30.07,10.0,WNW,4.6,-,N/A,,Clear,290,2014-01-24 17:55:00
1:15 PM,15.8,-5.8,38,30.07,10.0,NNW,6.9,-,N/A,,Clear,330,2014-01-24 18:15:00
1:35 PM,15.8,-4.0,41,30.07,10.0,WNW,5.8,-,N/A,,Clear,300,2014-01-24 18:35:00
1:55 PM,15.8,-5.8,38,30.07,10.0,WNW,5.8,-,N/A,,Clear,300,2014-01-24 18:55:00
2:15 PM,15.8,-4.0,41,30.06,10.0,West,6.9,-,N/A,,Clear,280,2014-01-24 19:15:00
2:35 PM,15.8,-4.0,41,30.06,10.0,WNW,6.9,-,N/A,,Clear,300,2014-01-24 19:35:00
2:55 PM,15.8,-4.0,41,30.06,10.0,West,6.9,-,N/A,,Clear,270,2014-01-24 19:55:00
3:15 PM,15.8,-4.0,41,30.07,10.0,West,5.8,-,N/A,,Clear,260,2014-01-24 20:15:00
3:35 PM,15.8,-4.0,41,30.07,10.0,West,6.9,-,N/A,,Clear,280,2014-01-24 20:35:00
3:55 PM,14.0,-4.0,45,30.07,10.0,West,5.8,-,N/A,,Clear,280,2014-01-24 20:55:00
4:15 PM,12.2,-4.0,48,30.07,10.0,West,4.6,-,N/A,,Clear,270,2014-01-24 21:15:00
4:35 PM,10.4,-4.0,52,30.08,10.0,Calm,Calm,-,N/A,,Clear,0,2014-01-24 21:35:00
4:55 PM,8.6,-4.0,57,30.08,10.0,Calm,Calm,-,N/A,,Clear,0,2014-01-24 21:55:00
5:15 PM,8.6,-4.0,57,30.08,10.0,Calm,Calm,-,N/A,,Clear,0,2014-01-24 22:15:00
5:35 PM,6.8,-4.0,61,30.09,10.0,Calm,Calm,-,N/A,,Clear,0,2014-01-24 22:35:00
5:55 PM,6.8,-4.0,61,30.09,10.0,West,3.5,-,N/A,,Clear,260,2014-01-24 22:55:00
6:15 PM,6.8,-4.0,61,30.10,10.0,Calm,Calm,-,N/A,,Clear,0,2014-01-24 23:15:00
6:35 PM,6.8,-2.2,67,30.09,10.0,Calm,Calm,-,N/A,,Clear,0,2014-01-24 23:35:00
6:55 PM,6.8,-2.2,67,30.11,10.0,Calm,Calm,-,N/A,,Clear,0,2014-01-24 23:55:00
7:15 PM,5.0,-2.2,72,30.11,10.0,West,3.5,-,N/A,,Clear,260,2014-01-25 00:15:00
7:35 PM,5.0,-2.2,72,30.10,10.0,Calm,Calm,-,N/A,,Clear,0,2014-01-25 00:35:00
7:55 PM,5.0,-2.2,72,30.10,10.0,Calm,Calm,-,N/A,,Clear,0,2014-01-25 00:55:00
8:15 PM,3.2,-4.0,72,30.10,10.0,WSW,3.5,-,N/A,,Clear,250,2014-01-25 01:15:00
8:35 PM,5.0,-2.2,72,30.09,10.0,Calm,Calm,-,N/A,,Clear,0,2014-01-25 01:35:00
8:55 PM,5.0,-2.2,72,30.10,10.0,Calm,Calm,-,N/A,,Clear,0,2014-01-25 01:55:00
9:15 PM,5.0,-2.2,72,30.09,10.0,Calm,Calm,-,N/A,,Clear,0,2014-01-25 02:15:00
9:35 PM,5.0,-2.2,72,30.09,10.0,Calm,Calm,-,N/A,,Clear,0,2014-01-25 02:35:00
9:55 PM,3.2,-5.8,66,30.08,10.0,Calm,Calm,-,N/A,,Clear,0,2014-01-25 02:55:00
10:15 PM,1.4,-7.6,66,30.08,10.0,Calm,Calm,-,N/A,,Clear,0,2014-01-25 03:15:00
10:35 PM,-0.4,-5.8,78,30.07,10.0,Calm,Calm,-,N/A,,Scattered Clouds,0,2014-01-25 03:35:00
10:55 PM,-0.4,-5.8,78,30.06,10.0,Calm,Calm,-,N/A,,Overcast,0,2014-01-25 03:55:00
11:15 PM,1.4,-0.4,92,30.05,10.0,Calm,Calm,-,N/A,,Overcast,0,2014-01-25 04:15:00
11:35 PM,1.4,-2.2,85,30.04,10.0,Calm,Calm,-,N/A,,Scattered Clouds,0,2014-01-25 04:35:00
11:55 PM,1.4,-0.4,92,30.04,10.0,Calm,Calm,-,N/A,,Clear,0,2014-01-25 04:55:00